Location: Juzet
(42.9779°N, 0.7597°E)
Time: 18:12:46
(UTC+00:00)

CZ-4C R/B - Pass Details

Date: 14 July 2020
Orbit: 409 x 491 km, 97.7° (Epoch: 12 August)

Event Time Altitude Azimuth Distance (km) Brightness Sun altitude
Rises 03:54:55 0° 186° (S) 2,385 6.2 -6.3°
Reaches altitude 10° 03:57:04 10° 197° (SSW) 1,511 5.1 -6.0°
Maximum altitude 03:59:59 31° 262° (W) 765 3.6 -5.5°
Drops below altitude 10° 04:02:52 10° 327° (NNW) 1,498 5.6 -5.1°
Sets 04:05:00 0° 338° (NNW) 2,359 6.7 -4.8°
